Regional Weather Roundup
Issued by NWS

Home | Current Version | Previous Version | Graphics & Text | Print | Product List | Glossary On
Versions: 1 2 3 4 5 6 7 8 9 10 11 12 13 14 15 16 17 18 19 20 21 22 23 24 25 26 27 28 29 30 31 32 33 34 35 36 37 38 39 40 41 42 43 44 45 46 47 48 49 50
000
ASUS43 KMKX 240900
RWRWI

WISCONSIN REGIONAL WEATHER ROUNDUP
NATIONAL WEATHER SERVICE MILWAUKEE/SULLIVAN WI
400 AM CDT MON APR 24 2017

NOTE: "FAIR" INDICATES FEW OR NO CLOUDS BELOW 12,000 FEET WITH NO
SIGNIFICANT WEATHER AND/OR OBSTRUCTIONS TO VISIBILITY.

WIZ001-002-006>008-014>016-023>028-241000-
NORTHWEST WISCONSIN

CITY           SKY/WX    TMP DP  RH WIND       PRES   REMARKS
SUPERIOR ARPT  CLOUDY    35  29  77 E16G25    29.99S WCI  25
ASHLAND        CLOUDY    34  27  75 NE10      30.01F WCI  26
HAYWARD        CLOUDY    37  31  78 NE6       29.94S WCI  32
SIREN          CLOUDY    37  32  81 E6        29.89F WCI  32
CUMBERLAND     PTCLDY    39  36  87 SE9G16    29.90S WCI  33
RICE LAKE      PTCLDY    41  36  81 SE14      29.92S
CHETEK         PTCLDY    40  37  86 SE9G17    29.93S WCI  34
LADYSMITH      CLOUDY    38  32  78 SE8       29.97S WCI  33
EAU CLAIRE     NOT AVBL
MENOMONIE      PTCLDY    45  40  81 E12       29.91F
NEW RICHMOND   MOCLDY    46  40  78 SE10G16   29.87S
OSCEOLA        PTCLDY    46  41  81 E5        29.88F
$$

WIZ003>005-009-010-017-018-241000-
NORTH CENTRAL WISCONSIN

CITY           SKY/WX    TMP DP  RH WIND       PRES   REMARKS
MANITOWISH WTR PTCLDY    31  21  64 E6        29.99F WCI  26
ARBOR VITAE    CLOUDY    33  24  68 SE7       29.98F WCI  27
WOODRUFF       CLOUDY    33  24  68 SE7       29.98F WCI  27
RHINELANDER    PTCLDY    34  22  61 SE9       30.00S WCI  27
EAGLE RIVER    CLOUDY    30  13  49 E8        30.01S WCI  23
LAND O LAKES   CLOUDY    31  13  48 SE9       30.02F WCI  23
PHILLIPS       PTCLDY    35  27  75 SE6       29.96F WCI  29
TOMAHAWK       PTCLDY    33  24  71 SE5       30.00F WCI  28
MEDFORD        CLOUDY    33  29  83 SE9       29.97F WCI  26
MERRILL        CLOUDY    33  25  71 SE8       30.01F WCI  26
$$

WIZ029-030-035-036-043>047-241000-
CENTRAL WISCONSIN

CITY           SKY/WX    TMP DP  RH WIND       PRES   REMARKS
WAUSAU         CLOUDY    33  26  75 SE10      30.00F WCI  25
MOSINEE        CLOUDY    32  30  93 E7        30.02F WCI  26
MARSHFIELD     CLOUDY    35  28  75 E10       29.98F WCI  27
STEVENS POINT  CLOUDY    33  28  83 E7        30.03S WCI  26
WAUPACA        CLOUDY    37  29  72 NE3       30.05F
WAUTOMA        PTCLDY    36  30  79 E7        30.04F WCI  30
WISC RAPIDS    CLEAR     35  28  75 E8        30.01F WCI  29
CAMP DOUGLAS   NOT AVBL
$$

WIZ011>013-019>022-031-037>040-048>050-241000-
NORTHEAST WISCONSIN

CITY           SKY/WX    TMP DP  RH WIND       PRES   REMARKS
ANTIGO         CLOUDY    30  23  73 SE13      30.02F WCI  20
SHAWANO        CLOUDY    36  30  78 E8        30.06F WCI  30
OCONTO         PTCLDY    35  28  76 E5        30.06F WCI  31
STURGEON BAY   CLEAR     35  30  82 E12       30.06F WCI  27
GREEN BAY      PTCLDY    37  30  75 E9        30.05F WCI  30
MANITOWOC      NOT AVBL
APPLETON       CLOUDY    36  27  69 E10       30.02F WCI  28
CLINTONVILLE   CLOUDY    34  28  80 CALM      30.06S
OSHKOSH        CLOUDY    39  31  72 E7        30.03F WCI  34
$$

WIZ032>034-041-042-053>061-241000-
SOUTHWEST WISCONSIN

CITY           SKY/WX    TMP DP  RH WIND       PRES   REMARKS
LA CROSSE      CLEAR     50  41  71 E13       29.93S
SPARTA         PTCLDY    40  37  89 E7        29.98S
VIROQUA        CLEAR     44  40  87 E9        29.95F
BOSCOBEL       CLEAR     47  42  83 VRB3      29.97S
PRAIRIE DU CHI CLEAR     48  33  55 CALM      29.94F
PLATTEVILLE    CLEAR     53  34  48 SE6       29.97S
$$

WIZ056-057-062-063-064-067-068-241000-
SOUTH CENTRAL WISCONSIN

CITY           SKY/WX    TMP DP  RH WIND       PRES   REMARKS
REEDSBURG      PTCLDY    38  37  97 E6        29.99S WCI  33
BARABOO/DELLS  PTCLDY    37  34  90 E7        30.00S WCI  31
LONE ROCK      NOT AVBL
MINERAL POINT  CLEAR     46  37  71 CALM      29.97S
MADISON        CLEAR     37  33  85 E5        30.01S WCI  33
MIDDLETON      CLEAR     40  37  90 E5        30.00F
WATERTOWN      CLEAR     35  35 100 CALM      30.01F
MONROE         CLEAR     43  37  81 E7        29.98S
JANESVILLE     CLEAR     36  36 100 NE5       30.00S WCI  32
$$

WIZ051-052-058>065-066-070>072-241000-
SOUTHEAST WISCONSIN

CITY           SKY/WX    TMP DP  RH WIND       PRES   REMARKS
MILWAUKEE      PTCLDY    40  35  83 NE7       30.03S
WAUKESHA       CLEAR     34  32  93 CALM      30.03S
MILWAUKEE/TIMM CLEAR     36  32  87 NE3       30.04S
RACINE         CLEAR     39  35  86 NE8       30.05R WCI  33
KENOSHA        CLEAR     35  33  92 CALM      30.03R
FOND DU LAC    CLOUDY    37  29  72 E5        30.03F WCI  33
SHEBOYGAN      CLEAR     36  31  82 NE8       30.04S WCI  30
WEST BEND      CLEAR     36  32  87 CALM      30.03S
JUNEAU         PTCLDY    36  32  87 NE3       30.03S
$$

LSZ147-162-241000-
LAKE SUPERIOR

STATION/POSITION TIME  TEMP    WIND        PRES    WAVE
                       AIR SEA DIR/SP/G            HT/PER
                 (UTC) (F)     (DEG/KT/KT) (MB)    (FT/S)
DEVILS ISLAND    0800   34      70/ 26/ 28 1018.6F
SAXON HARBOR     0830   35      80/  4/  8 1016.6F
$$

LMZ867-665-643>646-241000-
LAKE MICHIGAN

STATION/POSITION TIME  TEMP    WIND        PRES    WAVE
                       AIR SEA DIR/SP/G            HT/PER
                 (UTC) (F)     (DEG/KT/KT) (MB)    (FT/S)
CHAMBERS ISLAND  0840   35      40/  7/ 12 1017.9F
N MID LAKE BUOY  0750   35 37   80/ 16/ 17 1020.2F   3/ 4
NORTHPORT PIER   0840   36      80/ 11/ 15 1018.6F
KEWAUNEE LAKESHO 0830   38      50/ 12/ 16 1017.6F
SHEBOYGAN LAKESH 0800   39      10/ 16/ 18 1017.7F
PORT WASHINGTON  0830   39     340/  4/  8 1017.9F
MILWAUKEE LAKESH 0840   41     360/ 10/ 13   N/A
S MID LAKE BUOY  0750   40 40   30/  4/  4 1017.4F   3/ 7
KENOSHA   LAKESH 0800   41      30/ 12/ 14 1016.6
$$

TC  - TEMPERATURE IN CELSIUS
VSB - VISIBILITY IN STATUTE MILES
WCI - WIND CHILL INDEX
HX  - HEAT INDEX




USA.gov is the U.S. government's official web portal to all federal, state and local government web resources and services.